Regional Weather Roundup
Issued by NWS

Home | Current Version | Previous Version | Graphics & Text | Print | Product List | Glossary On
Versions: 1 2 3 4 5 6 7 8 9 10 11 12 13 14 15 16 17 18 19 20 21 22 23 24 25 26 27 28 29 30 31 32 33 34 35 36 37 38 39 40 41 42 43 44 45 46 47 48 49 50
171
ASUS45 KCYS 271010
RWRWY

WYOMING REGIONAL WEATHER ROUNDUP
NATIONAL WEATHER SERVICE CHEYENNE WY
400 AM MDT TUE JUN 27 2017

NOTE:  "FAIR" INDICATES FEW OR NO CLOUDS BELOW 12,000 FEET
WITH NO SIGNIFICANT WEATHER AND/OR OBSTRUCTIONS TO VISIBILITY.

WYZ001-271100-
YELLOWSTONE NATIONAL PARK

CITY           SKY/WX    TMP DP  RH WIND       PRES   REMARKS
LK YELLOWSTONE   N/A     57  38  48 W13G22    30.15R
W YELLOWSTONE  NOT AVBL

$$
WYZ002>013-054>058-071-098>099-271100-
NORTHERN WYOMING

CITY           SKY/WX    TMP DP  RH WIND       PRES   REMARKS
JACKSON        CLOUDY    61  48  63 SW6G18    30.10R
CODY           FAIR      71  39  31 CALM      29.88S
GREYBULL       FAIR      66  33  29 CALM      29.78F
WORLAND        FAIR      60  37  42 S7        29.80R
SHERIDAN       FAIR      56  45  66 CALM      29.76S
BUFFALO        FAIR      61  41  47 CALM      29.82F
GILLETTE       FAIR      62  47  57 E9        29.83F
NEWCASTLE      FAIR      63  46  55 E21G26    29.91F

$$
WYZ014>020-022>026-101>103-271100-
CENTRAL WYOMING

CITY           SKY/WX    TMP DP  RH WIND       PRES   REMARKS
BIG PINEY      LGT RAIN  58  42  55 N10       30.10R
PINEDALE       CLOUDY    55  43  62 NW10G22   30.11R
DUBOIS         FAIR      55  39  54 W10       30.07F
LANDER         FAIR      71  35  26 CALM      29.93S
RIVERTON       LGT RAIN  70  42  36 NW12      29.90F
CASPER         FAIR      66  39  37 CALM      29.90F
DOUGLAS        FAIR      61  54  77 SE17G23   29.92F

$$
WYZ021-027>030-104>119-271100-
SOUTHERN WYOMING

CITY           SKY/WX    TMP DP  RH WIND       PRES   REMARKS
EVANSTON       FAIR      61  36  39 SW6       30.06S
KEMMERER         N/A     54  37  54 CALM      30.08F
FORT BRIDGER   FAIR      63  34  34 S5        30.08F
ROCK SPRINGS   FAIR      65  34  31 S7        30.03F
DIXON          FAIR      53  34  50 NE6       30.11R
RAWLINS        FAIR      63  29  27 SW12      30.09R
SARATOGA       FAIR      59  32  36 W15G21    30.13R
LARAMIE        FAIR      51  49  92 S12       30.10F
CHEYENNE       CLOUDY    55  53  93 S12       30.07F
TORRINGTON     FAIR      62  56  80 SE13      29.95F
PINE BLUFFS    FAIR      57  55  94 S14G23    30.03F

$$




USA.gov is the U.S. government's official web portal to all federal, state and local government web resources and services.